Wind_Speed
83 75 65 75 82 82 82 83 74 77 87 101 96 90 93 94 91 83 76 75 64 64 56 49 55 53 49 44 49 49 44 41 34 35 33 31 35 36 34 35 36 36 39 39
72 62 72 82 88 88 93 87 81 89 89 99 104 97 94 95 91 93 83 77 70 67 60 52 54 59 52 51 50 45 46 40 39 38 38 39 37 38 38 38 37 38 40 39
62 67 73 76 80 83 89 95 88 95 89 95 108 102 101 96 92 91 88 78 77 73 60 54 50 56 55 53 51 50 48 44 41 40 43 43 41 41 40 40 39 41 41 36
53 61 64 72 77 77 83 90 93 99 93 100 110 102 99 95 87 84 83 78 77 69 66 63 59 56 58 56 51 51 49 48 46 46 48 49 45 43 43 44 41 38 40 43
41 46 51 61 71 72 77 94 97 101 97 98 110 108 98 96 87 82 83 77 76 68 63 62 61 61 61 55 53 51 55 50 49 51 52 50 47 43 43 43 42 44 44 42
35 38 45 53 63 67 90 96 101 105 98 101 109 105 98 91 80 80 83 81 75 74 71 62 63 58 53 55 56 51 53 56 54 52 53 48 44 46 41 41 44 43 43 42
27 31 38 46 56 72 85 96 97 107 107 101 102 103 96 92 84 82 82 84 78 71 69 68 66 53 52 55 54 52 54 57 56 54 51 50 50 43 42 41 42 43 43 45
21 25 32 40 54 70 81 96 102 105 102 88 102 100 95 91 84 82 74 77 78 76 72 75 73 60 61 60 56 57 59 59 59 55 53 48 48 48 46 45 48 47 46 47
17 21 31 44 63 79 85 87 92 97 91 93 101 98 95 90 88 87 83 77 73 75 78 75 79 73 66 63 59 59 61 62 58 56 56 54 52 51 50 47 43 45 47 47
16 21 34 49 65 75 83 92 97 94 91 95 103 99 96 92 91 93 87 80 76 75 80 81 81 71 71 67 67 65 63 66 66 65 60 58 56 55 48 51 49 48 50 51
18 24 34 47 63 72 80 89 88 88 88 98 100 96 97 94 92 88 85 83 83 80 82 83 83 79 73 70 69 68 67 66 67 63 62 61 62 56 55 49 50 48 51 54
23 26 34 44 54 65 78 83 85 85 88 91 91 91 94 91 88 85 79 78 78 80 80 81 79 82 82 76 72 68 66 66 69 71 72 69 62 60 57 57 59 58 55 58
35 30 34 44 57 70 78 85 81 80 86 91 87 88 88 89 89 89 85 86 82 82 79 78 76 73 72 74 75 75 74 74 75 74 70 66 59 60 58 60 63 62 62 64
40 39 38 46 55 63 71 78 78 78 81 89 84 84 88 90 88 86 88 84 85 83 80 79 77 76 77 77 77 78 78 73 72 72 70 67 64 63 63 64 63 67 67 67
45 50 51 52 58 64 71 79 72 67 85 87 85 86 88 92 95 86 87 88 87 86 82 82 83 79 76 77 77 76 75 75 76 75 73 70 68 67 69 68 67 69 70 71
50 53 55 56 58 63 70 71 62 64 87 87 87 89 86 93 98 96 89 88 88 87 87 85 82 81 77 79 80 78 80 80 80 74 73 70 68 72 74 74 75 74 74 71
50 52 55 60 65 64 68 70 62 57 73 89 89 89 90 85 89 96 96 91 89 88 87 85 83 83 81 82 87 82 83 85 82 75 76 74 77 78 79 79 78 76 76 76
47 53 57 61 65 68 68 67 63 63 66 86 90 92 91 93 87 88 94 96 93 92 92 88 87 85 84 84 84 86 85 84 79 81 80 80 80 84 86 75 72 74 81 86
47 49 52 60 63 68 70 69 66 65 68 83 88 92 92 91 97 91 90 92 92 93 92 92 91 90 90 89 90 89 87 89 86 90 88 84 76 75 76 77 82 87 92 91
52 52 55 56 62 67 71 74 73 69 74 81 88 90 93 94 90 94 95 92 93 94 92 94 93 91 90 92 91 92 90 90 88 84 86 83 81 84 86 90 92 97 99 96
50 56 59 60 62 67 72 75 78 79 74 86 92 94 93 93 95 94 92 93 94 96 94 95 93 90 90 91 92 92 90 91 92 93 93 91 92 96 96 96 98 97 96 97
40 52 58 60 65 66 70 77 79 83 84 85 92 97 96 95 97 96 97 97 97 97 99 99 94 93 95 97 96 97 98 99 100 100 101 103 101 100 95 97 98 99 98 98
24 43 54 60 65 70 73 77 80 83 88 88 89 94 95 96 99 98 99 101 101 101 100 100 104 105 105 105 107 104 104 104 102 104 105 103 101 102 101 102 98 97 99 106
21 25 46 60 66 70 74 78 81 85 86 89 93 94 92 97 95 99 105 103 100 98 100 103 104 102 102 102 103 104 103 104 105 105 106 106 106 106 107 105 109 109 107 102
22 22 24 34 57 71 76 78 80 81 86 90 91 95 101 101 99 99 99 100 104 105 107 108 108 109 109 110 111 111 112 112 110 112 112 111 112 112 114 114 113 110 108 102
20 22 23 25 30 47 66 79 86 85 85 90 94 97 101 104 111 112 107 107 103 102 101 105 108 109 110 111 111 112 113 113 116 116 117 117 113 110 111 111 109 105 105 106
Wind_Direction
267 261 256 250 244 230 225 214 218 217 221 217 212 209 216 212 214 215 220 222 219 222 216 222 220 220 222 223 235 237 243 242 241 239 251 258 261 263 270 277 281 285 289 292
264 258 244 237 236 226 215 214 212 210 217 215 210 206 215 214 212 216 218 219 217 222 219 219 217 219 220 229 232 236 241 240 240 241 249 257 261 267 273 273 279 285 288 293
263 251 245 236 232 230 215 213 211 205 213 214 209 205 213 214 210 214 217 220 219 224 226 221 219 219 222 224 228 234 239 239 238 248 254 258 261 267 270 269 277 284 289 294
259 252 243 234 229 223 215 207 210 204 209 211 210 205 213 217 209 212 217 220 222 226 227 227 230 223 227 232 232 233 236 241 245 246 252 258 263 265 267 269 276 283 290 291
264 254 239 227 222 216 204 202 206 202 207 210 209 204 209 216 208 211 212 216 221 221 223 222 225 225 226 226 230 235 237 239 244 245 248 253 261 267 268 268 273 282 288 293
263 245 231 221 213 201 202 200 199 201 205 208 207 203 208 213 208 213 215 218 222 222 222 220 224 222 224 226 229 230 235 240 244 245 249 256 263 265 262 268 275 282 288 290
259 238 224 212 205 198 198 198 193 198 206 206 204 202 206 210 208 212 216 217 216 215 216 218 223 225 225 226 223 227 227 235 242 247 252 257 263 259 265 272 281 288 286 286
245 227 216 198 190 192 196 197 197 200 207 203 203 200 205 209 208 210 214 218 219 218 222 222 222 221 224 223 228 228 235 240 245 248 254 255 261 269 273 278 288 286 283 293
215 205 196 189 188 189 197 195 193 199 201 202 200 200 204 208 207 207 210 213 218 219 223 221 223 226 227 229 227 231 238 242 246 251 256 260 266 272 277 282 286 286 283 291
183 183 185 183 185 188 191 190 196 199 199 199 197 200 202 208 208 209 208 214 217 219 219 222 223 229 234 234 232 238 239 244 248 253 257 262 269 272 278 285 283 291 285 296
165 173 181 182 189 193 195 200 200 197 198 195 196 200 201 208 211 212 214 216 220 220 221 224 226 231 232 235 240 242 240 245 249 255 261 267 270 274 277 284 281 290 292 299
159 166 174 181 188 191 194 194 199 198 197 190 196 200 203 209 212 214 213 214 222 227 228 227 233 236 236 237 240 240 244 250 257 260 264 267 273 273 277 288 288 287 295 296
166 168 178 183 187 191 194 196 199 200 197 190 195 199 201 208 214 216 217 220 222 225 226 229 233 234 237 242 247 250 250 252 256 261 263 267 270 273 281 285 289 289 293 297
178 170 179 181 188 192 195 197 203 204 195 191 196 201 203 208 213 217 218 219 221 224 228 231 233 235 239 242 246 250 251 253 255 257 263 267 267 271 278 283 288 291 292 293
187 182 181 187 192 194 196 200 203 204 193 194 197 201 206 210 213 216 221 222 225 227 229 230 236 242 245 249 251 251 252 254 255 260 264 266 270 274 278 283 285 287 290 291
196 189 188 191 193 198 199 201 203 206 198 197 200 203 205 211 213 217 220 224 225 226 231 235 240 242 245 246 246 251 256 256 257 260 263 265 271 274 276 281 284 285 284 284
204 202 200 193 195 196 200 202 204 203 210 201 203 204 207 208 215 218 220 224 227 230 233 239 243 245 247 246 244 252 251 254 255 260 267 268 270 272 275 280 284 282 281 282
208 213 211 202 201 199 199 201 201 206 209 210 208 209 211 213 214 218 222 224 227 231 235 239 242 245 243 244 249 253 254 254 258 261 262 266 266 269 275 280 276 274 275 281
212 214 216 213 209 205 205 203 200 207 214 215 212 213 215 218 221 220 224 225 229 232 235 238 241 244 246 248 250 251 253 257 260 262 261 262 263 267 269 267 269 273 275 280
214 217 218 216 215 211 208 209 207 209 214 217 216 216 219 222 222 226 228 228 229 230 234 239 241 243 247 248 247 248 250 250 253 256 259 262 261 264 269 267 273 271 274 282
221 221 219 221 219 217 216 214 216 211 219 220 219 219 220 223 226 227 227 230 231 231 233 235 236 238 241 244 245 245 245 246 250 253 257 259 263 267 272 272 269 271 274 281
227 226 224 221 222 223 221 219 220 221 219 224 224 223 223 226 227 229 231 230 231 232 233 233 235 237 239 243 246 248 251 253 254 257 263 267 267 267 267 269 273 277 280 280
232 232 231 228 225 225 225 223 226 226 227 224 229 230 230 232 232 232 235 236 236 238 238 238 240 242 244 245 249 254 256 258 259 261 261 262 263 264 267 270 274 274 276 282
233 231 230 232 232 231 229 230 229 230 231 233 234 234 234 235 237 240 239 239 241 241 241 242 242 242 242 245 247 249 251 253 255 257 257 257 259 263 266 270 274 276 279 280
243 239 234 235 234 234 236 237 237 235 236 236 237 239 239 238 239 241 242 245 244 245 246 247 247 248 250 251 252 254 256 256 256 256 259 261 264 268 269 271 275 277 280 278
251 246 241 237 237 236 236 236 238 241 241 240 239 240 240 242 244 243 243 245 246 249 250 251 251 251 250 252 254 256 257 260 260 260 261 263 266 269 269 269 269 272 274 276
Height
10450 10462 10487 10485 10481 10495 10499 10518 10539 10561 10560 10576 10606 10631 10636 10651 10668 10682 10695 10707 10718 10724 10729 10738 10745 10751 10753 10758 10762 10765 10770 10771 10774 10775 10775 10776 10777 10776 10776 10775 10774 10773 10771 10768
10424 10444 10436 10428 10440 10461 10483 10498 10516 10529 10544 10560 10582 10607 10618 10629 10650 10665 10679 10693 10705 10709 10726 10729 10734 10742 10744 10750 10755 10759 10761 10765 10766 10768 10769 10769 10770 10770 10769 10768 10767 10765 10763 10761
10403 10400 10397 10408 10420 10442 10463 10478 10499 10513 10526 10540 10563 10583 10594 10613 10635 10651 10671 10684 10695 10705 10716 10722 10727 10732 10738 10742 10745 10749 10753 10757 10759 10761 10761 10762 10763 10764 10761 10761 10760 10758 10756 10753
10374 10370 10377 10385 10400 10418 10442 10471 10481 10496 10503 10526 10546 10578 10593 10606 10633 10648 10665 10677 10688 10696 10705 10713 10719 10726 10729 10731 10737 10743 10746 10748 10752 10751 10752 10753 10755 10756 10755 10754 10752 10751 10748 10746
10356 10353 10358 10366 10377 10401 10433 10438 10459 10479 10486 10506 10528 10555 10584 10593 10620 10644 10656 10667 10678 10687 10694 10703 10709 10711 10713 10722 10727 10735 10738 10740 10741 10742 10743 10744 10745 10748 10747 10746 10745 10744 10741 10737
10339 10340 10341 10349 10361 10390 10389 10415 10432 10455 10470 10478 10510 10546 10570 10592 10624 10631 10643 10656 10666 10675 10683 10693 10697 10699 10708 10714 10721 10726 10728 10729 10731 10732 10733 10736 10737 10738 10738 10738 10737 10735 10732 10728
10330 10331 10335 10344 10357 10376 10391 10405 10423 10436 10444 10477 10511 10537 10566 10580 10604 10617 10626 10639 10651 10660 10670 10679 10686 10693 10697 10704 10708 10713 10715 10717 10719 10722 10724 10727 10728 10729 10730 10728 10727 10726 10722 10719
10325 10327 10332 10343 10356 10378 10390 10401 10412 10427 10456 10492 10506 10536 10559 10577 10593 10606 10616 10627 10638 10650 10660 10667 10673 10679 10685 10691 10698 10701 10704 10706 10709 10713 10714 10717 10719 10719 10721 10720 10718 10715 10712 10710
10323 10327 10333 10340 10350 10361 10374 10401 10419 10430 10457 10478 10503 10534 10550 10564 10576 10588 10601 10613 10626 10638 10649 10657 10663 10669 10673 10680 10687 10691 10693 10697 10700 10701 10705 10707 10709 10708 10710 10710 10709 10706 10703 10700
10328 10331 10336 10343 10354 10367 10386 10396 10406 10426 10452 10473 10497 10517 10534 10548 10561 10573 10594 10608 10618 10627 10635 10643 10651 10657 10662 10669 10673 10678 10684 10688 10689 10693 10695 10695 10698 10698 10699 10699 10698 10695 10693 10691
10334 10338 10343 10354 10366 10374 10388 10396 10413 10431 10453 10471 10491 10511 10528 10537 10550 10570 10586 10598 10607 10616 10625 10634 10641 10646 10653 10658 10665 10669 10675 10677 10681 10683 10684 10687 10686 10687 10688 10687 10686 10684 10682 10680
10337 10346 10354 10362 10374 10384 10395 10407 10417 10434 10452 10471 10488 10506 10527 10539 10548 10563 10577 10587 10596 10605 10615 10625 10633 10638 10645 10649 10653 10659 10663 10667 10669 10670 10675 10678 10677 10674 10675 10673 10672 10671 10669 10667
10342 10351 10359 10367 10376 10386 10399 10407 10422 10434 10449 10467 10479 10500 10517 10531 10539 10551 10564 10574 10584 10593 10603 10611 10618 10626 10632 10637 10642 10648 10653 10656 10657 10660 10663 10667 10667 10664 10661 10659 10657 10656 10655 10652
10347 10352 10362 10372 10382 10392 10402 10412 10421 10433 10449 10465 10479 10495 10508 10520 10530 10538 10550 10559 10570 10581 10591 10598 10606 10613 10619 10624 10630 10635 10639 10642 10644 10647 10650 10652 10653 10651 10648 10647 10644 10643 10641 10638
10348 10351 10359 10371 10380 10388 10398 10407 10421 10436 10448 10460 10476 10487 10498 10509 10518 10528 10537 10550 10561 10570 10578 10586 10593 10601 10607 10610 10616 10621 10624 10628 10632 10635 10636 10638 10637 10635 10634 10633 10631 10629 10628 10626
10348 10352 10358 10365 10375 10386 10396 10407 10421 10431 10441 10451 10464 10475 10483 10494 10505 10515 10526 10537 10549 10559 10566 10574 10580 10587 10594 10599 10603 10606 10609 10613 10617 10620 10621 10620 10619 10618 10619 10619 10618 10616 10615 10614
10346 10351 10358 10362 10368 10380 10393 10404 10414 10422 10431 10443 10453 10462 10472 10483 10494 10504 10516 10525 10535 10545 10553 10561 10567 10573 10578 10584 10588 10592 10594 10597 10600 10602 10603 10604 10603 10604 10605 10604 10602 10601 10599 10597
10342 10350 10355 10361 10367 10375 10386 10396 10406 10415 10422 10431 10441 10452 10460 10470 10482 10493 10502 10511 10519 10527 10535 10542 10549 10556 10562 10567 10571 10575 10576 10579 10580 10583 10585 10586 10587 10589 10589 10584 10584 10583 10582 10579
10337 10344 10351 10358 10365 10373 10381 10391 10398 10407 10415 10422 10432 10442 10450 10459 10467 10477 10485 10495 10504 10513 10519 10526 10534 10540 10546 10550 10554 10557 10558 10559 10561 10564 10567 10570 10570 10569 10569 10568 10567 10567 10565 10560
10333 10338 10346 10353 10362 10369 10375 10383 10390 10397 10404 10411 10419 10429 10438 10446 10454 10464 10472 10481 10491 10499 10505 10511 10518 10524 10528 10531 10535 10538 10541 10543 10545 10548 10549 10551 10552 10552 10552 10552 10551 10549 10546 10542
10327 10331 10338 10346 10354 10362 10369 10375 10380 10386 10393 10399 10407 10416 10423 10431 10440 10449 10458 10467 10475 10484 10490 10496 10501 10505 10509 10513 10515 10518 10521 10524 10528 10531 10531 10532 10531 10530 10533 10531 10530 10528 10525 10523
10321 10326 10331 10339 10345 10353 10359 10365 10372 10377 10381 10388 10396 10405 10412 10418 10425 10432 10440 10448 10456 10463 10470 10475 10481 10486 10490 10495 10497 10500 10503 10507 10508 10510 10511 10512 10510 10511 10512 10511 10509 10506 10503 10500
10315 10317 10322 10330 10336 10342 10348 10354 10360 10366 10371 10376 10384 10394 10402 10408 10411 10416 10422 10430 10437 10444 10451 10457 10463 10467 10470 10473 10475 10477 10481 10483 10486 10487 10488 10488 10489 10489 10490 10490 10488 10486 10484 10480
10311 10312 10314 10318 10325 10330 10335 10341 10347 10352 10358 10366 10373 10379 10384 10391 10396 10403 10409 10414 10418 10423 10429 10434 10438 10443 10448 10451 10454 10456 10459 10461 10463 10464 10465 10465 10465 10467 10466 10467 10466 10464 10463 10459
10304 10306 10308 10310 10314 10317 10322 10328 10334 10341 10347 10351 10355 10361 10368 10373 10379 10384 10389 10394 10399 10404 10408 10413 10417 10422 10426 10428 10431 10433 10435 10436 10438 10439 10440 10442 10442 10443 10444 10443 10442 10441 10439 10438
10298 10298 10300 10301 10302 10304 10307 10312 10318 10324 10330 10334 10339 10344 10349 10354 10361 10366 10370 10375 10378 10384 10388 10392 10394 10395 10397 10399 10401 10404 10408 10411 10413 10415 10416 10416 10417 10417 10418 10419 10418 10416 10414 10411